Content
SEND FEEDBACK

Daily
Averages
Monthly
Summary
United States of America

SOUTH DAYTONA, FLORIDA


Home > North America > United States > Florida
Elevation: 26 feet     Latitude: 29 27N     Longitude: 081 19W

WEATHER
 
SELECT A DAY
Number of Records: 197,034;   Date Range: 1/1/95 - 7/29/14
 
SHARE

PRINT THIS DATA

[ ← Previous Day ]
WEATHER ALMANAC - FEBRUARY 13, 2013
[ Next Day → ]
[ °C ]   °F
Weather ElementAverageHighLow
Temperature72.8 °F88 °F (1:53 pm)64 °F (10:53 pm)
Dewpoint65.9 °F69.8 °F (7:04 pm)57 °F (10:53 pm)
Humidity81 %100 % (7:04 pm)45 % (1:53 pm)
Barometer29.93 in29.99 in (11:53 pm)29.83 in (3:53 pm)
Wind Speed12.2 mph20.7 mph (10:47 am)
Wind Gust33.4 mph (3:53 pm)
Weather ElementAverage
Visibility9.3 mi
Wind DirectionWSW (243.9 °)

Weather ElementTotal
Precipitation0.39 in
Cooling Degree Days11 (Base 65)
Growing Degree Days26 (Base 50)
Averaged from 33 records on February 13, 2013
WEATHER CONDITIONS BREAKOUT
WIND DIRECTION BREAKOUT
WEATHER BY HOUR - FEBRUARY 13, 2013
[ °C ]   °F
Local TimeTemperatureDewpointHumidityBarometerVisibilityWind DirectionWind SpeedGust SpeedPrecipitationEventsConditions
1:53 AM69.1 °F68.0 °F96 %29.96 in10.0 miSSW (210°)9.2 mphScattered Clouds
2:35 AM69.8 °F68.0 °F94 %29.96 in10.0 miSSW (210°)9.2 mphMostly Cloudy
2:53 AM69.1 °F68.0 °F96 %29.94 in9.0 miSSW (200°)9.2 mphMostly Cloudy
3:53 AM69.1 °F66.9 °F93 %29.93 in10.0 miSSW (200°)10.4 mphMostly Cloudy
4:53 AM69.1 °F66.9 °F93 %29.93 in8.0 miSSW (200°)12.7 mphMostly Cloudy
5:53 AM69.1 °F66.9 °F93 %29.94 in9.0 miSSW (210°)10.4 mphMostly Cloudy
6:53 AM69.1 °F66.9 °F93 %29.94 in8.0 miSSW (210°)11.5 mphOvercast
7:53 AM68.0 °F66.0 °F93 %29.95 in8.0 miSouth (190°)11.5 mphMostly Cloudy
8:53 AM70.0 °F66.9 °F90 %29.96 in10.0 miSSW (200°)13.8 mph20.7 mphOvercast
9:39 AM73.4 °F66.2 °F78 %29.97 in10.0 miSouth (190°)13.8 mphOvercast
9:53 AM73.0 °F68.0 °F84 %29.97 in10.0 miSSW (200°)10.4 mphOvercast
10:29 AM77.0 °F68.0 °F74 %29.97 in10.0 miSSW (200°)16.1 mphMostly Cloudy
10:47 AM77.0 °F68.0 °F74 %29.96 in10.0 miSSW (210°)20.7 mph26.5 mphScattered Clouds
10:53 AM78.1 °F69.1 °F74 %29.95 in10.0 miSouth (190°)18.4 mph26.5 mphScattered Clouds
11:53 AM82.0 °F66.0 °F58 %29.93 in10.0 miSW (220°)15.0 mphScattered Clouds
12:53 PM86.0 °F64.0 °F48 %29.89 in10.0 miSSW (200°)19.6 mph31.1 mphMostly Cloudy
1:53 PM88.0 °F64.0 °F45 %29.86 in10.0 miSW (230°)17.3 mph25.3 mphMostly Cloudy
2:53 PM84.9 °F64.0 °F49 %29.84 in10.0 miSSW (210°)18.4 mph27.6 mphMostly Cloudy
3:53 PM84.9 °F64.0 °F49 %29.83 in10.0 miSW (230°)19.6 mph33.4 mphMostly Cloudy
4:53 PM82.9 °F64.9 °F54 %29.85 in10.0 miSW (230°)19.6 mph29.9 mphMostly Cloudy
5:53 PM79.0 °F66.9 °F66 %29.86 in10.0 miWest (260°)15.0 mph19.6 mph0.00 inMostly Cloudy
6:46 PM71.6 °F68.0 °F88 %29.89 in6.0 miWest (280°)15.0 mph28.8 mph0.02 inRainLight Rain
6:53 PM71.1 °F68.0 °F90 %29.89 in8.0 miWNW (290°)11.5 mph26.5 mph0.05 inRainLight Rain
7:02 PM69.8 °F68.0 °F94 %29.90 in8.0 miWNW (300°)9.2 mph19.6 mph0.00 inRainLight Rain
7:04 PM69.8 °F69.8 °F100 %29.89 in6.0 miNW (310°)5.8 mph0.00 inRainHeavy Rain
7:15 PM69.8 °F68.0 °F94 %29.91 in10.0 miWest (280°)9.2 mph0.02 inRainLight Rain
7:22 PM69.8 °F68.0 °F94 %29.91 in10.0 miWest (280°)10.4 mph0.02 inOvercast
7:53 PM66.9 °F64.9 °F93 %29.91 in6.0 miNNW (330°)11.5 mph25.3 mph0.06 inRainLight Rain
8:33 PM64.4 °F64.4 °F100 %29.96 in10.0 miNNW (330°)4.6 mph0.11 inOvercast
8:53 PM66.0 °F64.0 °F93 %29.95 in10.0 miNW (310°)4.6 mph0.11 inMostly Cloudy
9:53 PM64.9 °F57.9 °F78 %29.98 in10.0 miNNW (330°)9.2 mphMostly Cloudy
10:53 PM64.0 °F57.0 °F78 %29.98 in10.0 miNNW (340°)4.6 mph0.00 inRainLight Rain
11:53 PM64.9 °F57.9 °F78 %29.99 in10.0 miWest (270°)4.6 mph0.00 inMostly Cloudy
Hourly data recorded from KMCO, located miles away from South Daytona, Florida







STORIES FROM OUR PARTNERS